Precipitable_Water
0.40 0.39 0.38 0.38 0.37 0.36 0.36 0.34 0.34 0.34 0.34 0.33 0.34 0.34 0.36 0.36 0.37 0.38 0.39 0.39 0.39 0.39 0.40 0.39 0.37 0.35 0.34 0.32 0.32 0.31 0.27 0.24 0.20 0.20 0.18 0.19 0.21 0.23 0.24 0.26 0.27 0.28 0.26 0.19 0.17 0.16 0.15 0.17 0.17 0.20 0.20 0.20 0.19 0.18 0.20 0.21 0.22 0.22 0.16 0.15 0.13 0.13 0.12 0.14 0.12 0.13 0.14 0.12 0.14 0.16 0.20 0.20 0.18 0.25 0.28 0.29 0.27 0.28 0.28 0.27 0.28 0.30 0.26 0.26 0.24 0.24 0.26 0.29
0.38 0.38 0.37 0.38 0.39 0.39 0.38 0.36 0.35 0.35 0.35 0.35 0.36 0.37 0.38 0.38 0.39 0.40 0.41 0.41 0.41 0.42 0.43 0.43 0.42 0.41 0.40 0.37 0.37 0.34 0.28 0.26 0.22 0.23 0.22 0.28 0.27 0.27 0.29 0.29 0.29 0.27 0.26 0.17 0.14 0.14 0.13 0.14 0.15 0.16 0.15 0.15 0.19 0.16 0.19 0.16 0.20 0.16 0.14 0.13 0.10 0.14 0.13 0.15 0.15 0.15 0.13 0.13 0.14 0.16 0.21 0.21 0.21 0.24 0.27 0.22 0.21 0.23 0.23 0.24 0.25 0.25 0.27 0.28 0.27 0.27 0.27 0.29
0.37 0.37 0.37 0.37 0.38 0.39 0.39 0.39 0.39 0.38 0.38 0.38 0.38 0.38 0.40 0.40 0.42 0.44 0.44 0.43 0.43 0.43 0.43 0.42 0.42 0.42 0.42 0.42 0.43 0.40 0.35 0.30 0.30 0.27 0.29 0.34 0.33 0.34 0.34 0.33 0.32 0.29 0.24 0.19 0.18 0.16 0.14 0.14 0.15 0.15 0.14 0.13 0.15 0.14 0.16 0.14 0.16 0.16 0.13 0.10 0.11 0.13 0.13 0.14 0.15 0.15 0.16 0.15 0.14 0.16 0.19 0.20 0.22 0.23 0.25 0.19 0.19 0.21 0.19 0.20 0.21 0.21 0.22 0.24 0.27 0.27 0.28 0.28
0.39 0.39 0.39 0.39 0.40 0.41 0.42 0.42 0.43 0.43 0.41 0.40 0.40 0.42 0.42 0.43 0.44 0.46 0.45 0.45 0.43 0.43 0.43 0.42 0.42 0.41 0.41 0.42 0.42 0.38 0.32 0.30 0.26 0.30 0.33 0.37 0.37 0.38 0.37 0.36 0.38 0.34 0.30 0.26 0.24 0.21 0.20 0.18 0.16 0.15 0.14 0.12 0.14 0.14 0.13 0.15 0.13 0.15 0.13 0.10 0.12 0.13 0.12 0.14 0.15 0.15 0.16 0.17 0.15 0.17 0.19 0.18 0.22 0.22 0.21 0.19 0.16 0.16 0.18 0.20 0.20 0.20 0.21 0.22 0.25 0.27 0.28 0.28
0.44 0.44 0.44 0.44 0.44 0.45 0.47 0.48 0.47 0.46 0.45 0.45 0.45 0.45 0.45 0.46 0.47 0.47 0.46 0.45 0.44 0.44 0.43 0.43 0.43 0.42 0.41 0.42 0.40 0.40 0.31 0.25 0.25 0.31 0.32 0.35 0.37 0.36 0.36 0.36 0.36 0.35 0.33 0.30 0.28 0.26 0.23 0.20 0.19 0.18 0.16 0.14 0.13 0.13 0.12 0.13 0.15 0.14 0.12 0.13 0.13 0.14 0.12 0.14 0.15 0.15 0.15 0.17 0.16 0.16 0.14 0.16 0.22 0.21 0.19 0.18 0.14 0.16 0.16 0.18 0.20 0.20 0.20 0.21 0.22 0.25 0.27 0.27
0.48 0.48 0.49 0.50 0.51 0.52 0.53 0.53 0.51 0.49 0.47 0.45 0.46 0.46 0.45 0.46 0.48 0.47 0.46 0.45 0.43 0.43 0.43 0.42 0.43 0.41 0.40 0.40 0.38 0.35 0.28 0.20 0.28 0.30 0.36 0.34 0.35 0.34 0.35 0.35 0.34 0.33 0.31 0.27 0.25 0.24 0.22 0.22 0.21 0.19 0.19 0.18 0.17 0.14 0.14 0.14 0.15 0.10 0.14 0.13 0.14 0.15 0.13 0.14 0.15 0.15 0.16 0.15 0.15 0.14 0.16 0.18 0.18 0.17 0.19 0.20 0.18 0.19 0.21 0.21 0.21 0.21 0.22 0.24 0.24 0.25 0.25 0.26
0.50 0.50 0.50 0.50 0.51 0.51 0.50 0.48 0.48 0.48 0.47 0.47 0.45 0.44 0.44 0.45 0.46 0.47 0.45 0.43 0.42 0.42 0.41 0.41 0.40 0.41 0.38 0.39 0.35 0.30 0.27 0.27 0.30 0.32 0.33 0.34 0.34 0.32 0.33 0.33 0.33 0.31 0.29 0.26 0.24 0.23 0.22 0.20 0.20 0.19 0.18 0.18 0.18 0.18 0.19 0.19 0.19 0.14 0.12 0.13 0.13 0.15 0.13 0.15 0.14 0.15 0.15 0.15 0.14 0.17 0.18 0.15 0.16 0.14 0.19 0.17 0.18 0.20 0.21 0.22 0.22 0.23 0.24 0.25 0.23 0.24 0.24 0.25
0.51 0.51 0.51 0.51 0.51 0.50 0.48 0.47 0.46 0.46 0.46 0.45 0.44 0.43 0.43 0.43 0.43 0.43 0.42 0.41 0.40 0.39 0.38 0.37 0.39 0.40 0.38 0.35 0.30 0.29 0.27 0.26 0.30 0.33 0.32 0.33 0.32 0.30 0.32 0.29 0.28 0.27 0.26 0.24 0.24 0.22 0.22 0.20 0.18 0.20 0.18 0.17 0.19 0.18 0.20 0.19 0.20 0.18 0.17 0.17 0.16 0.15 0.15 0.15 0.16 0.16 0.16 0.15 0.16 0.16 0.15 0.15 0.16 0.15 0.16 0.15 0.17 0.19 0.20 0.21 0.22 0.22 0.23 0.24 0.23 0.24 0.24 0.25
0.53 0.53 0.52 0.51 0.50 0.49 0.48 0.46 0.46 0.45 0.44 0.43 0.42 0.41 0.41 0.41 0.41 0.40 0.40 0.39 0.38 0.38 0.37 0.37 0.38 0.42 0.42 0.35 0.30 0.27 0.27 0.30 0.32 0.33 0.33 0.33 0.32 0.32 0.30 0.27 0.27 0.25 0.24 0.24 0.23 0.22 0.21 0.19 0.19 0.19 0.17 0.18 0.19 0.18 0.20 0.18 0.17 0.19 0.18 0.19 0.18 0.18 0.18 0.17 0.16 0.16 0.16 0.16 0.16 0.15 0.14 0.15 0.16 0.16 0.14 0.16 0.18 0.20 0.22 0.22 0.22 0.22 0.22 0.23 0.23 0.24 0.24 0.25
0.50 0.50 0.49 0.48 0.47 0.46 0.46 0.45 0.44 0.42 0.41 0.40 0.40 0.40 0.40 0.39 0.39 0.40 0.41 0.41 0.40 0.39 0.39 0.39 0.41 0.42 0.38 0.33 0.29 0.24 0.29 0.33 0.33 0.35 0.35 0.33 0.32 0.31 0.29 0.28 0.26 0.24 0.23 0.23 0.23 0.22 0.20 0.20 0.20 0.21 0.20 0.19 0.20 0.19 0.21 0.19 0.18 0.22 0.20 0.19 0.18 0.19 0.19 0.18 0.17 0.17 0.17 0.16 0.17 0.14 0.14 0.14 0.16 0.15 0.13 0.18 0.20 0.22 0.22 0.22 0.23 0.23 0.23 0.24 0.24 0.25 0.25 0.25
0.49 0.47 0.46 0.44 0.43 0.42 0.42 0.41 0.40 0.39 0.39 0.40 0.41 0.42 0.42 0.43 0.42 0.42 0.42 0.42 0.41 0.40 0.40 0.39 0.42 0.41 0.33 0.31 0.26 0.23 0.32 0.33 0.35 0.35 0.34 0.33 0.31 0.28 0.27 0.27 0.27 0.26 0.24 0.23 0.22 0.23 0.23 0.22 0.23 0.23 0.22 0.19 0.22 0.21 0.21 0.21 0.23 0.21 0.20 0.20 0.19 0.19 0.20 0.19 0.19 0.18 0.18 0.16 0.17 0.15 0.14 0.15 0.16 0.16 0.15 0.19 0.21 0.23 0.22 0.23 0.24 0.24 0.24 0.24 0.25 0.25 0.26 0.27
0.50 0.48 0.46 0.43 0.42 0.41 0.40 0.39 0.38 0.38 0.39 0.41 0.42 0.43 0.43 0.43 0.44 0.44 0.42 0.40 0.40 0.40 0.39 0.42 0.44 0.38 0.34 0.30 0.26 0.26 0.33 0.34 0.36 0.35 0.34 0.32 0.29 0.29 0.29 0.28 0.28 0.26 0.25 0.22 0.23 0.24 0.24 0.24 0.23 0.22 0.18 0.24 0.19 0.22 0.21 0.25 0.22 0.21 0.21 0.18 0.19 0.19 0.18 0.19 0.18 0.18 0.18 0.16 0.18 0.17 0.15 0.15 0.16 0.16 0.20 0.22 0.23 0.24 0.23 0.23 0.24 0.24 0.24 0.25 0.25 0.26 0.27 0.27
0.50 0.48 0.46 0.44 0.42 0.41 0.39 0.38 0.38 0.38 0.39 0.41 0.41 0.40 0.40 0.41 0.42 0.43 0.43 0.41 0.42 0.42 0.43 0.48 0.44 0.38 0.32 0.25 0.27 0.32 0.34 0.35 0.34 0.33 0.32 0.32 0.31 0.31 0.30 0.29 0.28 0.27 0.26 0.24 0.23 0.24 0.26 0.25 0.24 0.21 0.22 0.22 0.21 0.18 0.23 0.24 0.21 0.21 0.21 0.19 0.18 0.18 0.17 0.19 0.20 0.20 0.19 0.19 0.20 0.20 0.13 0.16 0.17 0.20 0.22 0.24 0.25 0.25 0.24 0.24 0.25 0.25 0.26 0.26 0.27 0.27 0.28 0.29
0.51 0.49 0.47 0.45 0.43 0.41 0.39 0.38 0.39 0.39 0.41 0.42 0.41 0.41 0.43 0.46 0.45 0.45 0.44 0.40 0.42 0.42 0.46 0.46 0.40 0.35 0.29 0.25 0.30 0.33 0.34 0.35 0.34 0.32 0.31 0.32 0.29 0.27 0.28 0.29 0.28 0.27 0.27 0.25 0.25 0.26 0.26 0.27 0.25 0.24 0.26 0.22 0.20 0.27 0.23 0.22 0.23 0.18 0.20 0.20 0.16 0.15 0.15 0.20 0.20 0.21 0.19 0.22 0.22 0.22 0.14 0.17 0.19 0.21 0.24 0.25 0.25 0.25 0.23 0.24 0.24 0.25 0.26 0.26 0.27 0.28 0.28 0.29
0.49 0.47 0.44 0.43 0.42 0.41 0.40 0.39 0.38 0.37 0.38 0.40 0.38 0.41 0.45 0.45 0.46 0.46 0.47 0.47 0.47 0.50 0.47 0.42 0.39 0.33 0.27 0.28 0.34 0.36 0.39 0.36 0.33 0.31 0.33 0.29 0.27 0.25 0.26 0.29 0.27 0.26 0.25 0.25 0.25 0.28 0.28 0.27 0.25 0.21 0.20 0.25 0.25 0.21 0.19 0.20 0.21 0.21 0.17 0.16 0.18 0.15 0.18 0.19 0.22 0.21 0.17 0.20 0.23 0.21 0.16 0.18 0.19 0.22 0.24 0.25 0.26 0.25 0.24 0.24 0.25 0.26 0.26 0.27 0.28 0.28 0.29 0.29
0.45 0.45 0.43 0.42 0.40 0.39 0.38 0.37 0.37 0.36 0.36 0.36 0.35 0.40 0.42 0.46 0.49 0.52 0.54 0.50 0.52 0.51 0.45 0.38 0.35 0.31 0.28 0.25 0.31 0.38 0.34 0.31 0.30 0.33 0.33 0.31 0.29 0.26 0.29 0.28 0.28 0.26 0.25 0.24 0.27 0.27 0.26 0.24 0.20 0.21 0.21 0.22 0.20 0.18 0.17 0.17 0.18 0.19 0.16 0.15 0.15 0.16 0.17 0.17 0.20 0.21 0.22 0.20 0.22 0.20 0.17 0.18 0.19 0.23 0.25 0.26 0.26 0.26 0.25 0.25 0.26 0.26 0.27 0.28 0.28 0.28 0.29 0.29
0.42 0.41 0.41 0.40 0.38 0.36 0.36 0.36 0.36 0.36 0.35 0.36 0.37 0.42 0.45 0.45 0.45 0.44 0.43 0.44 0.45 0.47 0.41 0.34 0.35 0.34 0.23 0.31 0.35 0.28 0.26 0.30 0.32 0.30 0.30 0.31 0.30 0.28 0.28 0.26 0.25 0.25 0.25 0.24 0.24 0.23 0.23 0.21 0.23 0.21 0.22 0.19 0.20 0.18 0.15 0.15 0.14 0.16 0.18 0.15 0.17 0.15 0.17 0.15 0.20 0.22 0.22 0.21 0.19 0.22 0.19 0.20 0.22 0.24 0.25 0.26 0.26 0.26 0.25 0.25 0.26 0.27 0.27 0.28 0.28 0.29 0.29 0.29
0.39 0.37 0.37 0.37 0.37 0.36 0.36 0.37 0.39 0.40 0.38 0.37 0.37 0.40 0.39 0.40 0.41 0.40 0.36 0.35 0.39 0.39 0.37 0.38 0.34 0.29 0.25 0.31 0.24 0.25 0.29 0.29 0.29 0.29 0.30 0.31 0.30 0.29 0.27 0.24 0.25 0.24 0.23 0.20 0.22 0.18 0.20 0.18 0.20 0.16 0.18 0.18 0.18 0.17 0.14 0.13 0.14 0.14 0.15 0.14 0.16 0.17 0.16 0.16 0.16 0.22 0.23 0.23 0.21 0.22 0.21 0.21 0.23 0.24 0.25 0.25 0.26 0.26 0.25 0.25 0.26 0.27 0.28 0.29 0.29 0.29 0.29 0.29
0.34 0.33 0.34 0.35 0.37 0.38 0.40 0.41 0.41 0.40 0.37 0.37 0.40 0.45 0.39 0.35 0.34 0.33 0.27 0.31 0.30 0.29 0.26 0.28 0.28 0.20 0.18 0.24 0.28 0.28 0.29 0.30 0.30 0.29 0.27 0.29 0.30 0.30 0.28 0.28 0.26 0.23 0.19 0.18 0.18 0.18 0.21 0.19 0.20 0.17 0.14 0.16 0.17 0.18 0.17 0.18 0.18 0.18 0.18 0.18 0.18 0.17 0.18 0.18 0.22 0.24 0.24 0.22 0.21 0.21 0.20 0.21 0.22 0.23 0.24 0.25 0.26 0.26 0.26 0.27 0.28 0.28 0.28 0.28 0.28 0.28 0.29 0.29
0.33 0.35 0.36 0.39 0.41 0.42 0.42 0.41 0.41 0.40 0.38 0.33 0.29 0.28 0.27 0.21 0.20 0.21 0.25 0.30 0.29 0.30 0.30 0.30 0.28 0.26 0.27 0.27 0.27 0.33 0.35 0.33 0.27 0.29 0.31 0.33 0.32 0.29 0.27 0.27 0.24 0.24 0.21 0.17 0.19 0.20 0.23 0.16 0.15 0.15 0.17 0.18 0.20 0.21 0.21 0.22 0.22 0.21 0.21 0.19 0.19 0.19 0.19 0.21 0.21 0.24 0.26 0.21 0.19 0.19 0.19 0.20 0.21 0.22 0.24 0.26 0.26 0.26 0.26 0.26 0.26 0.27 0.27 0.27 0.27 0.28 0.28 0.29
0.37 0.38 0.39 0.40 0.41 0.41 0.41 0.41 0.40 0.38 0.34 0.29 0.25 0.22 0.19 0.20 0.18 0.18 0.23 0.28 0.33 0.33 0.31 0.30 0.29 0.27 0.26 0.29 0.31 0.29 0.25 0.26 0.29 0.29 0.30 0.34 0.30 0.26 0.24 0.25 0.22 0.20 0.21 0.23 0.20 0.26 0.23 0.16 0.17 0.19 0.21 0.21 0.21 0.22 0.21 0.20 0.19 0.18 0.16 0.15 0.14 0.14 0.13 0.17 0.17 0.20 0.23 0.18 0.18 0.20 0.20 0.20 0.21 0.23 0.24 0.25 0.24 0.23 0.24 0.25 0.25 0.26 0.27 0.27 0.27 0.27 0.28 0.28
0.37 0.38 0.38 0.39 0.41 0.40 0.40 0.40 0.38 0.35 0.32 0.29 0.24 0.20 0.22 0.24 0.28 0.26 0.26 0.23 0.29 0.33 0.34 0.32 0.33 0.29 0.32 0.31 0.33 0.32 0.29 0.22 0.24 0.27 0.31 0.30 0.26 0.21 0.22 0.21 0.20 0.18 0.22 0.23 0.22 0.20 0.18 0.16 0.20 0.22 0.24 0.24 0.22 0.21 0.20 0.19 0.17 0.17 0.16 0.16 0.15 0.16 0.18 0.19 0.20 0.23 0.24 0.20 0.18 0.20 0.18 0.19 0.20 0.21 0.22 0.23 0.23 0.24 0.26 0.26 0.26 0.26 0.26 0.26 0.27 0.27 0.27 0.28
0.38 0.39 0.39 0.39 0.38 0.38 0.38 0.38 0.36 0.33 0.29 0.25 0.23 0.24 0.23 0.31 0.37 0.35 0.36 0.27 0.25 0.33 0.32 0.30 0.28 0.28 0.29 0.32 0.33 0.33 0.24 0.21 0.21 0.25 0.26 0.28 0.24 0.24 0.23 0.20 0.19 0.19 0.21 0.22 0.17 0.17 0.16 0.19 0.22 0.24 0.24 0.21 0.20 0.21 0.20 0.19 0.19 0.18 0.17 0.16 0.15 0.17 0.15 0.14 0.18 0.20 0.21 0.19 0.17 0.18 0.17 0.18 0.20 0.21 0.22 0.23 0.23 0.24 0.26 0.26 0.26 0.27 0.26 0.26 0.26 0.26 0.27 0.27
0.38 0.39 0.39 0.37 0.38 0.36 0.36 0.33 0.34 0.29 0.27 0.26 0.24 0.24 0.33 0.39 0.37 0.33 0.29 0.22 0.22 0.26 0.32 0.32 0.30 0.30 0.27 0.25 0.29 0.27 0.23 0.22 0.23 0.21 0.29 0.26 0.21 0.26 0.24 0.22 0.20 0.22 0.20 0.21 0.20 0.18 0.17 0.21 0.25 0.24 0.24 0.22 0.20 0.21 0.20 0.18 0.17 0.18 0.17 0.16 0.16 0.16 0.17 0.16 0.16 0.19 0.20 0.20 0.20 0.18 0.16 0.16 0.18 0.17 0.18 0.21 0.24 0.24 0.25 0.25 0.26 0.27 0.28 0.28 0.29 0.29 0.30 0.30
0.39 0.39 0.39 0.37 0.34 0.33 0.30 0.29 0.24 0.24 0.28 0.25 0.24 0.31 0.35 0.36 0.36 0.34 0.27 0.23 0.22 0.22 0.34 0.31 0.29 0.27 0.25 0.32 0.29 0.21 0.22 0.22 0.20 0.24 0.25 0.23 0.19 0.19 0.18 0.22 0.19 0.17 0.18 0.20 0.19 0.19 0.18 0.23 0.26 0.24 0.22 0.21 0.19 0.18 0.18 0.18 0.15 0.16 0.18 0.18 0.17 0.17 0.16 0.16 0.17 0.16 0.14 0.14 0.16 0.16 0.10 0.12 0.16 0.16 0.17 0.19 0.21 0.22 0.24 0.25 0.26 0.27 0.28 0.29 0.29 0.30 0.31 0.32
0.36 0.36 0.36 0.34 0.31 0.29 0.31 0.21 0.22 0.26 0.23 0.19 0.23 0.32 0.35 0.34 0.39 0.37 0.22 0.17 0.13 0.17 0.23 0.17 0.26 0.18 0.28 0.21 0.22 0.20 0.23 0.15 0.20 0.23 0.24 0.23 0.27 0.19 0.18 0.16 0.18 0.13 0.16 0.15 0.14 0.15 0.17 0.21 0.20 0.18 0.17 0.17 0.17 0.16 0.17 0.17 0.14 0.12 0.14 0.17 0.17 0.16 0.15 0.15 0.15 0.14 0.11 0.10 0.15 0.17 0.10 0.09 0.14 0.14 0.16 0.18 0.20 0.22 0.25 0.26 0.27 0.28 0.29 0.29 0.29 0.30 0.31 0.31
0.34 0.35 0.36 0.34 0.30 0.27 0.21 0.17 0.26 0.26 0.16 0.18 0.29 0.33 0.35 0.35 0.40 0.34 0.18 0.12 0.12 0.16 0.15 0.20 0.19 0.19 0.25 0.21 0.20 0.21 0.10 0.12 0.20 0.25 0.21 0.25 0.19 0.28 0.16 0.14 0.18 0.18 0.19 0.18 0.14 0.11 0.17 0.17 0.17 0.17 0.16 0.16 0.15 0.14 0.16 0.16 0.14 0.12 0.18 0.18 0.17 0.16 0.15 0.15 0.15 0.14 0.12 0.14 0.15 0.14 0.13 0.10 0.10 0.14 0.19 0.20 0.21 0.22 0.24 0.26 0.27 0.28 0.29 0.29 0.30 0.31 0.31 0.32
0.37 0.36 0.35 0.33 0.30 0.26 0.21 0.23 0.21 0.18 0.17 0.23 0.33 0.34 0.34 0.36 0.35 0.33 0.16 0.09 0.08 0.18 0.14 0.16 0.18 0.27 0.21 0.23 0.21 0.16 0.15 0.19 0.14 0.18 0.23 0.25 0.24 0.21 0.18 0.15 0.14 0.14 0.17 0.17 0.09 0.14 0.16 0.15 0.16 0.16 0.16 0.15 0.14 0.15 0.17 0.18 0.14 0.14 0.18 0.18 0.16 0.16 0.15 0.14 0.12 0.11 0.11 0.11 0.10 0.13 0.16 0.11 0.12 0.16 0.21 0.21 0.19 0.21 0.22 0.24 0.26 0.27 0.29 0.29 0.30 0.31 0.32 0.33
0.37 0.35 0.34 0.32 0.30 0.27 0.27 0.22 0.20 0.18 0.25 0.32 0.35 0.34 0.35 0.36 0.29 0.19 0.12 0.07 0.13 0.14 0.26 0.15 0.28 0.22 0.19 0.22 0.17 0.18 0.17 0.18 0.13 0.18 0.21 0.24 0.24 0.20 0.14 0.16 0.16 0.15 0.17 0.16 0.11 0.12 0.17 0.18 0.18 0.18 0.15 0.13 0.16 0.17 0.17 0.17 0.13 0.16 0.18 0.17 0.16 0.15 0.14 0.13 0.12 0.13 0.13 0.11 0.10 0.13 0.16 0.11 0.12 0.16 0.17 0.20 0.19 0.19 0.21 0.24 0.26 0.28 0.29 0.30 0.31 0.32 0.33 0.34
0.38 0.35 0.31 0.29 0.30 0.24 0.23 0.25 0.21 0.28 0.34 0.36 0.34 0.34 0.34 0.27 0.21 0.10 0.08 0.06 0.13 0.09 0.15 0.16 0.16 0.14 0.18 0.14 0.14 0.16 0.14 0.16 0.18 0.19 0.19 0.16 0.18 0.23 0.21 0.22 0.16 0.15 0.12 0.16 0.14 0.13 0.17 0.25 0.26 0.18 0.15 0.16 0.16 0.16 0.17 0.17 0.17 0.19 0.16 0.14 0.13 0.14 0.14 0.15 0.15 0.14 0.13 0.10 0.11 0.14 0.16 0.14 0.10 0.15 0.17 0.17 0.18 0.21 0.22 0.24 0.27 0.29 0.30 0.31 0.31 0.32 0.33 0.33
0.38 0.36 0.30 0.29 0.23 0.24 0.24 0.18 0.22 0.32 0.35 0.36 0.37 0.33 0.25 0.16 0.10 0.07 0.05 0.07 0.13 0.13 0.16 0.15 0.13 0.19 0.13 0.12 0.11 0.15 0.15 0.16 0.16 0.18 0.15 0.18 0.16 0.17 0.17 0.17 0.17 0.14 0.12 0.10 0.12 0.12 0.17 0.19 0.18 0.19 0.22 0.18 0.17 0.14 0.19 0.19 0.18 0.16 0.14 0.13 0.13 0.13 0.14 0.13 0.13 0.14 0.09 0.09 0.12 0.15 0.15 0.16 0.10 0.14 0.19 0.22 0.24 0.25 0.24 0.23 0.25 0.27 0.29 0.30 0.31 0.31 0.31 0.30
0.39 0.37 0.32 0.28 0.29 0.31 0.20 0.18 0.26 0.35 0.35 0.38 0.33 0.22 0.16 0.07 0.09 0.06 0.06 0.14 0.07 0.10 0.11 0.11 0.16 0.14 0.13 0.15 0.13 0.13 0.12 0.15 0.16 0.16 0.13 0.14 0.13 0.11 0.12 0.10 0.11 0.07 0.07 0.08 0.08 0.12 0.13 0.14 0.18 0.20 0.21 0.17 0.15 0.14 0.15 0.17 0.18 0.16 0.15 0.14 0.11 0.09 0.10 0.08 0.10 0.09 0.09 0.09 0.13 0.16 0.16 0.13 0.14 0.17 0.20 0.22 0.24 0.25 0.26 0.26 0.25 0.26 0.27 0.28 0.28 0.28 0.28 0.27
0.39 0.38 0.35 0.32 0.32 0.27 0.28 0.32 0.37 0.36 0.39 0.35 0.24 0.16 0.09 0.07 0.05 0.07 0.08 0.10 0.07 0.13 0.11 0.17 0.13 0.13 0.13 0.13 0.12 0.14 0.16 0.11 0.15 0.15 0.16 0.15 0.13 0.13 0.15 0.14 0.14 0.10 0.07 0.10 0.10 0.10 0.11 0.15 0.16 0.16 0.18 0.19 0.18 0.13 0.13 0.13 0.16 0.15 0.14 0.13 0.11 0.09 0.08 0.07 0.09 0.10 0.10 0.12 0.14 0.15 0.17 0.12 0.16 0.18 0.23 0.23 0.25 0.26 0.27 0.27 0.27 0.27 0.26 0.26 0.26 0.27 0.27 0.27
0.39 0.38 0.31 0.32 0.32 0.31 0.32 0.37 0.38 0.38 0.33 0.27 0.14 0.10 0.08 0.05 0.05 0.13 0.09 0.10 0.10 0.16 0.16 0.13 0.14 0.13 0.13 0.10 0.11 0.13 0.10 0.14 0.14 0.13 0.16 0.13 0.13 0.11 0.14 0.16 0.16 0.14 0.13 0.12 0.09 0.10 0.08 0.08 0.11 0.14 0.12 0.19 0.18 0.16 0.16 0.15 0.16 0.15 0.17 0.15 0.13 0.11 0.10 0.08 0.09 0.08 0.09 0.11 0.13 0.16 0.13 0.12 0.12 0.17 0.24 0.25 0.26 0.26 0.27 0.27 0.27 0.27 0.27 0.26 0.26 0.26 0.26 0.27
0.38 0.36 0.35 0.32 0.31 0.32 0.34 0.36 0.37 0.35 0.29 0.19 0.11 0.08 0.06 0.06 0.08 0.07 0.08 0.11 0.13 0.15 0.13 0.16 0.12 0.11 0.11 0.12 0.13 0.14 0.13 0.11 0.15 0.14 0.13 0.13 0.12 0.13 0.13 0.14 0.16 0.16 0.15 0.11 0.11 0.11 0.10 0.10 0.13 0.18 0.17 0.19 0.17 0.19 0.20 0.18 0.16 0.17 0.17 0.17 0.14 0.13 0.15 0.10 0.12 0.11 0.11 0.11 0.11 0.13 0.13 0.16 0.16 0.23 0.25 0.26 0.26 0.25 0.25 0.25 0.25 0.25 0.25 0.25 0.25 0.25 0.25 0.25
0.36 0.30 0.36 0.25 0.24 0.28 0.32 0.34 0.34 0.35 0.21 0.12 0.09 0.07 0.06 0.08 0.07 0.10 0.10 0.17 0.15 0.12 0.12 0.13 0.12 0.10 0.10 0.11 0.13 0.12 0.17 0.13 0.14 0.13 0.12 0.14 0.15 0.13 0.16 0.16 0.15 0.17 0.14 0.11 0.12 0.10 0.11 0.09 0.14 0.17 0.19 0.18 0.18 0.20 0.19 0.20 0.11 0.15 0.16 0.13 0.15 0.19 0.17 0.13 0.13 0.14 0.14 0.12 0.11 0.15 0.15 0.17 0.22 0.23 0.24 0.24 0.23 0.22 0.23 0.23 0.23 0.23 0.23 0.24 0.22 0.22 0.22 0.22
0.28 0.28 0.23 0.23 0.23 0.28 0.31 0.34 0.33 0.23 0.18 0.12 0.08 0.07 0.10 0.11 0.14 0.13 0.16 0.14 0.15 0.16 0.12 0.09 0.10 0.10 0.09 0.09 0.10 0.12 0.13 0.15 0.13 0.12 0.10 0.14 0.13 0.16 0.15 0.16 0.19 0.18 0.18 0.16 0.13 0.15 0.10 0.10 0.16 0.15 0.15 0.19 0.21 0.21 0.20 0.20 0.20 0.17 0.13 0.16 0.19 0.21 0.18 0.15 0.11 0.12 0.12 0.10 0.11 0.14 0.13 0.14 0.14 0.13 0.22 0.21 0.21 0.20 0.21 0.21 0.22 0.22 0.22 0.20 0.20 0.20 0.20 0.20
0.27 0.27 0.25 0.20 0.23 0.29 0.33 0.32 0.26 0.19 0.14 0.11 0.08 0.09 0.15 0.11 0.16 0.17 0.20 0.18 0.18 0.16 0.12 0.10 0.11 0.13 0.10 0.10 0.09 0.11 0.13 0.11 0.11 0.13 0.10 0.13 0.10 0.19 0.16 0.15 0.19 0.18 0.19 0.20 0.14 0.14 0.16 0.10 0.13 0.15 0.16 0.18 0.20 0.20 0.18 0.20 0.22 0.18 0.16 0.21 0.15 0.12 0.12 0.15 0.13 0.10 0.09 0.09 0.10 0.12 0.14 0.14 0.15 0.15 0.18 0.19 0.19 0.19 0.20 0.20 0.20 0.19 0.19 0.19 0.19 0.19 0.19 0.19
0.27 0.23 0.16 0.19 0.26 0.31 0.31 0.27 0.19 0.16 0.12 0.09 0.10 0.09 0.14 0.15 0.19 0.18 0.20 0.22 0.20 0.16 0.12 0.13 0.11 0.13 0.12 0.10 0.11 0.13 0.13 0.10 0.12 0.11 0.10 0.12 0.10 0.16 0.16 0.18 0.16 0.20 0.20 0.20 0.16 0.16 0.17 0.11 0.11 0.16 0.16 0.18 0.18 0.18 0.13 0.16 0.20 0.21 0.21 0.18 0.20 0.17 0.15 0.13 0.14 0.13 0.13 0.10 0.10 0.11 0.12 0.11 0.16 0.17 0.18 0.18 0.19 0.18 0.18 0.18 0.18 0.18 0.19 0.18 0.18 0.18 0.18 0.18
0.19 0.16 0.13 0.21 0.25 0.31 0.27 0.23 0.16 0.13 0.11 0.08 0.11 0.11 0.16 0.14 0.18 0.22 0.23 0.22 0.16 0.15 0.13 0.13 0.14 0.11 0.12 0.12 0.13 0.10 0.13 0.13 0.12 0.12 0.11 0.13 0.12 0.18 0.16 0.21 0.17 0.18 0.21 0.20 0.17 0.19 0.14 0.16 0.10 0.14 0.18 0.18 0.14 0.16 0.15 0.16 0.15 0.16 0.17 0.16 0.17 0.17 0.18 0.17 0.16 0.14 0.12 0.11 0.10 0.10 0.09 0.14 0.17 0.21 0.19 0.18 0.18 0.17 0.18 0.18 0.18 0.18 0.18 0.18 0.18 0.18 0.18 0.18
0.17 0.12 0.13 0.22 0.25 0.28 0.27 0.17 0.13 0.11 0.11 0.14 0.15 0.14 0.16 0.15 0.19 0.19 0.23 0.25 0.21 0.22 0.16 0.14 0.13 0.11 0.12 0.11 0.11 0.14 0.12 0.13 0.13 0.11 0.12 0.12 0.12 0.10 0.19 0.19 0.20 0.17 0.21 0.19 0.17 0.19 0.15 0.15 0.11 0.13 0.14 0.14 0.14 0.18 0.19 0.18 0.18 0.17 0.16 0.15 0.16 0.14 0.13 0.11 0.10 0.15 0.14 0.12 0.10 0.10 0.09 0.14 0.18 0.20 0.18 0.17 0.17 0.18 0.18 0.18 0.18 0.18 0.18 0.18 0.18 0.18 0.18 0.17
0.12 0.10 0.13 0.23 0.24 0.25 0.17 0.12 0.13 0.16 0.14 0.12 0.12 0.16 0.16 0.24 0.18 0.18 0.20 0.22 0.21 0.17 0.22 0.17 0.16 0.14 0.13 0.12 0.13 0.13 0.12 0.11 0.13 0.11 0.13 0.11 0.14 0.14 0.18 0.23 0.22 0.22 0.18 0.16 0.17 0.21 0.20 0.17 0.15 0.12 0.14 0.14 0.16 0.19 0.21 0.21 0.21 0.19 0.19 0.16 0.18 0.17 0.16 0.13 0.09 0.11 0.14 0.14 0.15 0.13 0.11 0.12 0.18 0.18 0.17 0.17 0.17 0.18 0.18 0.18 0.17 0.18 0.18 0.18 0.18 0.17 0.16 0.16
0.14 0.12 0.18 0.22 0.23 0.20 0.15 0.12 0.15 0.14 0.13 0.16 0.20 0.19 0.21 0.18 0.17 0.18 0.17 0.18 0.15 0.18 0.16 0.15 0.14 0.13 0.14 0.13 0.13 0.13 0.13 0.11 0.12 0.11 0.12 0.13 0.14 0.18 0.21 0.23 0.23 0.21 0.21 0.18 0.20 0.21 0.22 0.15 0.13 0.13 0.15 0.16 0.18 0.20 0.21 0.21 0.20 0.18 0.18 0.19 0.18 0.15 0.16 0.14 0.14 0.15 0.13 0.13 0.12 0.12 0.09 0.10 0.16 0.18 0.17 0.17 0.17 0.17 0.18 0.18 0.17 0.17 0.17 0.17 0.16 0.15 0.14 0.15
0.15 0.14 0.16 0.21 0.23 0.19 0.13 0.09 0.10 0.12 0.15 0.18 0.18 0.16 0.20 0.18 0.17 0.15 0.15 0.17 0.15 0.15 0.14 0.14 0.14 0.16 0.13 0.16 0.15 0.12 0.15 0.09 0.12 0.12 0.12 0.15 0.14 0.22 0.23 0.23 0.24 0.20 0.19 0.18 0.16 0.22 0.15 0.15 0.14 0.11 0.10 0.12 0.13 0.16 0.17 0.19 0.18 0.16 0.16 0.17 0.17 0.17 0.17 0.17 0.17 0.17 0.12 0.12 0.11 0.09 0.05 0.09 0.14 0.17 0.17 0.16 0.16 0.16 0.17 0.17 0.17 0.15 0.15 0.15 0.14 0.14 0.14 0.14
0.15 0.17 0.17 0.18 0.21 0.18 0.12 0.14 0.12 0.12 0.13 0.13 0.13 0.12 0.14 0.16 0.19 0.18 0.17 0.15 0.18 0.16 0.15 0.13 0.14 0.16 0.15 0.16 0.14 0.15 0.16 0.12 0.10 0.14 0.14 0.15 0.15 0.23 0.22 0.23 0.24 0.21 0.23 0.24 0.23 0.25 0.17 0.15 0.13 0.10 0.08 0.07 0.07 0.08 0.10 0.12 0.14 0.16 0.17 0.16 0.17 0.17 0.16 0.15 0.13 0.13 0.10 0.10 0.09 0.07 0.07 0.11 0.14 0.15 0.15 0.16 0.16 0.16 0.16 0.16 0.16 0.15 0.14 0.14 0.13 0.13 0.14 0.14
0.11 0.10 0.14 0.16 0.19 0.18 0.18 0.20 0.16 0.13 0.12 0.12 0.11 0.12 0.14 0.12 0.16 0.19 0.19 0.16 0.18 0.17 0.17 0.16 0.16 0.17 0.14 0.13 0.11 0.12 0.12 0.16 0.13 0.12 0.14 0.14 0.16 0.19 0.21 0.23 0.23 0.22 0.23 0.24 0.22 0.21 0.16 0.16 0.15 0.14 0.12 0.11 0.12 0.13 0.17 0.18 0.15 0.13 0.14 0.16 0.16 0.18 0.18 0.17 0.15 0.11 0.08 0.08 0.07 0.08 0.08 0.09 0.11 0.13 0.13 0.14 0.14 0.13 0.13 0.14 0.14 0.14 0.14 0.13 0.13 0.13 0.14 0.14
0.15 0.11 0.12 0.10 0.15 0.16 0.14 0.17 0.15 0.14 0.11 0.14 0.09 0.12 0.10 0.12 0.13 0.15 0.20 0.13 0.17 0.16 0.16 0.15 0.14 0.12 0.12 0.12 0.11 0.11 0.12 0.12 0.14 0.14 0.13 0.14 0.17 0.18 0.21 0.22 0.23 0.23 0.23 0.24 0.23 0.20 0.16 0.13 0.15 0.15 0.14 0.14 0.15 0.15 0.16 0.16 0.14 0.15 0.15 0.15 0.17 0.17 0.17 0.14 0.10 0.08 0.10 0.08 0.05 0.09 0.10 0.09 0.10 0.11 0.12 0.12 0.13 0.13 0.13 0.13 0.13 0.13 0.12 0.12 0.13 0.14 0.14 0.14
0.12 0.15 0.16 0.16 0.12 0.10 0.12 0.12 0.15 0.14 0.15 0.14 0.11 0.14 0.11 0.11 0.12 0.10 0.15 0.17 0.17 0.18 0.12 0.13 0.13 0.14 0.14 0.12 0.12 0.10 0.11 0.11 0.12 0.11 0.15 0.16 0.16 0.18 0.17 0.21 0.20 0.22 0.22 0.21 0.22 0.18 0.15 0.12 0.14 0.15 0.13 0.15 0.16 0.15 0.16 0.15 0.16 0.16 0.16 0.16 0.15 0.16 0.14 0.11 0.10 0.10 0.10 0.07 0.06 0.09 0.10 0.09 0.09 0.10 0.11 0.13 0.13 0.12 0.13 0.13 0.13 0.13 0.13 0.13 0.14 0.13 0.13 0.13
0.18 0.17 0.17 0.20 0.12 0.14 0.14 0.14 0.16 0.14 0.13 0.13 0.12 0.12 0.10 0.10 0.10 0.13 0.13 0.13 0.14 0.13 0.14 0.09 0.11 0.13 0.14 0.15 0.13 0.11 0.12 0.09 0.10 0.13 0.14 0.14 0.15 0.15 0.14 0.16 0.20 0.22 0.21 0.19 0.20 0.20 0.16 0.14 0.15 0.15 0.13 0.14 0.14 0.15 0.16 0.15 0.16 0.16 0.16 0.16 0.15 0.13 0.12 0.11 0.10 0.11 0.10 0.09 0.10 0.10 0.09 0.08 0.10 0.11 0.12 0.13 0.14 0.14 0.14 0.14 0.13 0.12 0.12 0.13 0.13 0.13 0.13 0.13
0.13 0.13 0.12 0.17 0.16 0.15 0.15 0.15 0.14 0.13 0.11 0.13 0.09 0.11 0.12 0.11 0.10 0.13 0.15 0.13 0.10 0.12 0.16 0.11 0.12 0.14 0.14 0.15 0.14 0.12 0.13 0.14 0.14 0.12 0.15 0.15 0.15 0.16 0.15 0.16 0.16 0.20 0.21 0.18 0.18 0.19 0.15 0.13 0.15 0.14 0.12 0.12 0.14 0.15 0.16 0.16 0.15 0.14 0.15 0.14 0.12 0.12 0.11 0.11 0.11 0.10 0.10 0.09 0.09 0.09 0.08 0.08 0.11 0.13 0.13 0.14 0.14 0.15 0.14 0.12 0.12 0.12 0.12 0.12 0.12 0.12 0.12 0.12
0.17 0.19 0.17 0.13 0.11 0.13 0.15 0.14 0.12 0.11 0.10 0.11 0.10 0.11 0.13 0.11 0.11 0.13 0.13 0.17 0.13 0.11 0.13 0.12 0.14 0.14 0.15 0.15 0.14 0.14 0.17 0.16 0.17 0.16 0.17 0.17 0.13 0.17 0.15 0.16 0.20 0.17 0.18 0.17 0.18 0.18 0.17 0.13 0.15 0.14 0.11 0.11 0.14 0.15 0.15 0.14 0.13 0.12 0.11 0.11 0.10 0.10 0.09 0.10 0.09 0.10 0.09 0.08 0.08 0.08 0.07 0.08 0.12 0.14 0.14 0.14 0.14 0.13 0.12 0.12 0.12 0.12 0.12 0.13 0.12 0.12 0.12 0.11
0.21 0.22 0.20 0.15 0.10 0.14 0.12 0.13 0.13 0.11 0.08 0.12 0.12 0.12 0.11 0.11 0.14 0.15 0.10 0.16 0.17 0.17 0.16 0.16 0.15 0.14 0.13 0.13 0.13 0.15 0.18 0.19 0.19 0.20 0.21 0.22 0.23 0.22 0.23 0.22 0.21 0.18 0.17 0.17 0.18 0.16 0.16 0.14 0.13 0.13 0.11 0.11 0.14 0.15 0.13 0.11 0.10 0.08 0.08 0.08 0.10 0.11 0.11 0.12 0.11 0.12 0.11 0.10 0.08 0.07 0.07 0.11 0.12 0.13 0.12 0.13 0.13 0.12 0.12 0.12 0.12 0.12 0.13 0.13 0.12 0.12 0.11 0.10
Wind_Speed
5 4 4 4 4 4 3 3 3 3 3 3 2 2 2 2 2 1 1 2 2 2 3 3 4 4 4 5 5 5 5 4 3 3 4 5 7 8 9 10 10 11 10 11 11 11 11 12 12 12 12 12 13 12 13 13 13 14 15 16 17 17 16 16 16 16 16 16 15 16 17 18 16 16 17 17 18 17 18 19 18 18 18 18 17 17 17 17
4 4 3 3 2 2 2 2 2 2 3 3 3 2 2 2 2 2 2 2 2 3 4 4 5 5 5 6 6 6 5 5 4 4 5 7 8 9 10 11 11 11 11 12 12 12 13 13 13 13 13 14 14 14 14 14 14 15 15 17 18 17 16 16 17 17 17 17 15 16 17 18 17 16 17 18 17 17 19 19 18 19 19 19 18 18 18 18
4 3 3 2 1 1 1 2 2 2 3 3 3 3 3 3 3 3 3 3 4 4 5 5 6 6 7 8 7 7 7 6 6 7 8 9 10 11 11 12 12 12 12 13 13 13 14 14 14 15 15 15 15 15 15 15 16 16 16 18 18 17 17 17 18 18 17 17 16 16 17 18 18 17 18 18 17 18 19 19 19 20 20 20 20 19 19 19
3 3 2 1 1 1 1 2 2 3 3 4 4 4 4 4 4 4 5 5 5 5 6 6 7 8 9 9 9 9 9 8 8 10 11 12 13 13 13 13 13 13 13 14 14 14 14 14 15 15 16 16 15 16 16 16 16 16 17 19 17 17 18 18 18 18 18 18 18 17 17 18 18 18 18 18 19 19 19 19 19 20 20 20 20 20 20 20
2 2 1 1 0 1 2 2 3 3 4 5 5 5 5 5 5 5 6 6 6 6 7 8 9 9 10 10 10 10 11 10 10 12 13 14 15 14 14 14 14 14 14 14 15 15 15 15 15 15 16 16 16 16 17 16 17 17 18 18 17 18 19 18 18 19 18 18 18 17 18 18 18 18 19 19 20 19 19 20 20 20 20 20 20 20 21 21
1 1 1 1 1 2 3 3 4 5 5 6 6 7 7 7 7 7 7 7 8 8 9 10 10 11 11 12 11 12 12 12 12 13 14 15 16 15 15 15 15 15 15 15 15 16 16 16 17 16 17 17 17 17 17 16 18 19 18 18 18 19 19 19 19 19 19 19 19 19 19 18 18 19 19 19 20 20 21 22 21 21 21 20 20 20 21 21
1 1 2 2 3 4 4 5 5 6 7 7 8 8 8 8 8 8 8 9 9 10 11 11 12 12 13 13 13 13 12 12 13 14 15 16 16 16 16 16 16 16 16 16 16 17 17 17 18 18 18 18 18 18 17 17 18 20 19 18 18 19 19 19 19 20 20 20 20 19 19 19 19 19 19 19 20 21 22 22 22 22 21 20 19 20 21 21
2 3 3 4 4 5 6 6 7 8 8 9 9 9 9 9 9 9 10 10 11 11 12 13 13 14 14 14 14 13 13 13 14 15 16 17 17 17 17 17 17 17 17 17 17 18 18 18 19 19 19 19 19 18 18 18 19 20 20 18 18 19 19 19 19 20 20 20 20 20 20 19 19 20 19 19 21 22 21 21 21 21 20 20 20 20 21 21
4 4 5 5 6 6 7 8 9 9 10 10 10 10 10 10 11 11 11 12 12 13 13 14 14 15 15 15 15 14 14 14 15 16 17 18 18 18 18 18 18 18 17 17 18 18 18 19 19 19 20 19 19 19 19 20 20 20 19 18 18 19 19 19 19 20 20 20 20 20 20 19 19 20 20 19 21 21 21 20 20 20 20 20 20 20 21 21
5 6 6 7 7 8 8 9 10 10 11 11 11 11 12 12 12 13 13 14 14 14 15 15 16 16 16 15 15 14 14 15 16 17 18 19 19 18 18 19 19 18 18 18 18 18 19 19 19 19 20 19 19 19 19 20 20 19 19 19 19 19 19 19 19 19 20 21 21 21 20 19 20 21 21 21 21 21 20 19 19 19 19 20 20 20 20 20
6 7 7 8 8 9 9 10 10 11 11 11 12 12 13 13 13 14 15 15 15 15 15 16 16 16 16 15 14 14 15 15 16 18 19 19 19 19 19 19 19 19 19 19 19 19 19 19 19 19 20 19 19 19 20 20 20 19 19 20 19 19 19 19 19 19 20 20 21 21 20 20 21 21 22 22 22 20 19 18 19 18 18 19 19 19 20 20
7 7 8 8 9 9 10 10 11 11 12 12 13 13 14 14 14 14 15 15 15 15 15 16 16 15 15 14 14 15 15 16 18 19 20 20 20 19 19 19 20 20 20 20 20 20 20 19 19 20 20 20 19 20 20 19 19 19 19 21 20 20 20 19 19 19 20 20 19 20 20 21 20 20 22 22 20 19 18 18 18 18 18 18 19 19 19 19
8 8 9 9 9 10 10 11 11 12 12 13 13 14 14 14 14 13 14 14 14 15 15 15 15 15 15 14 15 16 17 18 19 20 20 20 20 20 20 20 20 20 20 20 20 20 20 20 20 20 20 20 20 20 19 19 19 19 19 21 21 21 21 19 19 18 19 19 18 20 21 20 19 20 21 21 20 19 18 18 18 18 18 18 19 19 19 20
8 9 10 10 10 11 11 11 12 12 13 13 13 13 13 12 12 12 13 13 14 15 15 15 14 14 14 14 15 16 17 18 19 20 20 20 20 20 20 21 21 20 20 20 19 19 19 19 19 19 19 20 19 19 19 19 19 19 19 20 20 21 19 17 18 18 19 19 19 21 22 21 19 20 22 21 21 19 18 19 19 19 18 18 19 19 19 20
9 9 10 10 10 11 11 11 11 12 12 12 13 12 11 11 11 12 12 13 13 13 13 13 13 14 13 13 14 15 16 18 19 19 19 20 20 19 19 20 20 20 19 19 19 18 18 18 18 18 18 18 18 18 19 19 19 19 19 20 19 19 18 17 17 19 19 19 20 21 21 20 19 21 22 21 21 19 18 19 19 19 19 19 19 19 19 20
9 9 10 10 10 10 10 10 10 11 11 12 12 11 10 10 10 11 12 13 13 12 13 13 13 14 13 13 14 15 16 19 19 18 18 19 20 19 20 20 19 19 19 18 18 17 17 17 18 18 17 18 18 19 19 19 19 18 19 20 18 19 19 17 17 18 20 19 20 21 22 21 21 22 22 22 22 20 19 20 20 20 20 20 21 20 20 20
9 9 9 9 9 9 9 9 10 11 11 11 11 10 10 10 10 11 12 13 12 12 12 12 13 13 12 12 14 15 17 19 18 17 17 18 18 18 18 18 17 17 17 17 17 17 17 17 17 17 17 17 18 18 19 19 18 17 18 19 19 19 19 19 18 18 20 20 20 21 22 21 22 22 22 22 22 21 20 21 21 21 21 21 21 21 21 21
8 8 8 8 8 8 8 9 10 11 11 11 10 10 9 10 10 10 12 13 11 11 11 11 12 11 11 13 14 16 17 17 16 16 17 17 16 16 16 16 16 16 15 16 16 16 17 16 16 17 16 16 17 17 18 18 18 18 19 20 19 19 20 20 19 19 20 21 21 22 22 21 22 22 22 23 23 21 21 21 21 21 21 21 21 21 20 20
6 6 6 7 7 8 8 9 9 10 11 10 9 9 9 10 10 10 12 12 10 10 10 11 12 11 12 13 14 16 17 16 14 15 17 17 16 15 15 14 14 14 14 15 14 15 15 15 15 16 15 16 16 17 18 18 18 19 19 20 21 21 21 20 19 20 20 21 22 22 21 21 21 21 21 22 21 20 20 20 20 20 20 20 20 20 20 19
5 5 6 6 7 8 8 9 9 10 10 9 9 9 9 11 10 10 11 11 9 9 10 11 11 11 12 13 14 16 16 14 13 15 18 17 16 14 13 13 13 12 13 14 13 13 14 15 14 15 15 16 16 17 18 17 18 18 19 19 20 21 21 19 19 19 20 21 20 19 19 19 20 20 21 21 20 20 20 20 20 20 20 20 20 19 19 19
5 5 6 6 7 8 8 8 8 9 9 9 10 9 9 10 10 10 11 10 9 10 10 10 10 11 12 12 14 16 15 13 13 15 17 17 15 13 13 13 12 12 12 13 13 12 13 14 13 13 15 15 16 16 16 16 17 18 19 19 20 20 20 19 18 19 19 20 19 18 18 19 20 20 20 21 20 20 21 20 20 19 19 19 19 18 18 19
5 5 6 6 7 7 7 7 8 9 9 10 10 9 9 10 10 10 10 9 9 9 9 10 10 12 13 12 14 16 14 14 14 15 17 17 14 13 13 12 11 12 12 12 12 12 12 12 12 13 14 14 14 15 16 16 17 17 18 19 19 19 19 18 18 18 19 20 20 19 20 20 20 20 20 21 21 20 20 19 19 19 19 19 19 19 19 19
5 5 6 7 7 7 8 7 8 10 10 10 10 9 9 9 9 10 9 8 8 9 10 10 11 13 14 13 15 16 14 13 14 15 17 16 14 12 12 12 11 11 11 12 12 12 12 12 12 13 13 14 15 15 16 16 17 17 18 19 19 18 19 18 18 18 19 20 20 20 20 20 20 20 20 20 19 19 19 18 19 19 19 19 19 19 19 19
5 5 6 7 7 8 8 8 9 10 10 10 10 9 9 9 9 9 9 8 8 9 10 11 11 13 14 14 16 16 13 12 14 15 16 16 14 12 12 12 11 11 11 12 12 12 12 12 12 13 13 14 15 15 15 17 17 17 17 18 19 18 18 18 18 19 19 19 19 19 20 20 20 19 19 19 19 18 18 18 18 19 19 18 19 19 19 19
5 6 7 8 9 9 8 8 9 10 10 10 10 10 9 9 10 9 9 8 7 9 11 11 11 13 14 15 16 15 11 11 13 14 15 15 14 13 11 12 12 12 11 12 12 11 11 12 13 13 13 14 15 15 15 16 16 16 16 17 17 17 18 18 19 20 20 19 18 19 21 20 19 19 19 19 19 18 18 18 18 18 19 19 19 19 19 19
6 7 8 9 10 10 9 8 9 10 9 10 10 10 9 10 10 9 9 8 8 10 12 12 12 13 15 15 16 14 11 11 13 14 14 15 14 12 11 12 11 12 12 12 12 11 11 12 13 14 14 14 14 14 14 15 16 15 15 16 17 17 18 19 20 21 21 20 19 21 22 21 20 19 19 19 18 18 18 18 18 19 19 19 19 19 19 19
6 8 9 9 10 10 8 8 9 9 9 9 10 10 10 10 9 9 9 8 8 11 12 13 13 14 15 14 15 13 11 14 14 13 15 15 14 12 12 12 11 11 12 12 11 11 12 13 13 14 14 13 13 13 14 15 16 16 16 17 18 18 20 20 21 22 22 22 21 21 21 22 20 18 18 18 17 17 18 18 18 19 19 19 19 19 20 20
7 8 9 9 10 9 8 8 9 9 9 10 10 10 10 9 9 9 8 7 9 12 12 13 13 14 15 14 14 13 12 14 13 13 15 15 13 12 11 12 12 11 12 12 12 12 13 14 14 14 13 13 13 14 15 16 17 17 17 18 18 19 20 21 22 22 21 21 19 17 18 20 18 17 17 18 18 18 18 18 18 18 19 19 19 20 20 21
8 9 9 9 8 9 8 8 9 9 9 10 10 10 10 9 9 9 8 7 10 11 11 13 12 14 16 13 13 14 12 13 13 14 15 13 13 12 11 12 12 11 12 12 13 13 14 14 14 14 14 14 15 15 16 17 17 17 17 17 18 19 19 20 20 19 18 18 17 15 16 18 17 16 17 18 18 19 18 18 18 18 19 20 20 21 21 22
8 8 9 8 8 8 9 9 9 9 10 10 9 10 9 9 9 8 8 9 10 11 11 13 12 14 15 13 12 14 13 13 14 15 14 13 14 13 11 12 12 11 12 12 13 14 14 13 13 13 14 15 16 16 16 16 16 16 17 18 18 18 18 18 17 17 17 16 15 15 16 17 18 16 16 17 18 19 19 18 18 19 19 20 21 22 22 23
7 8 8 8 8 9 9 9 10 10 10 10 9 9 9 8 9 8 8 9 10 11 12 12 12 13 14 12 12 14 14 13 15 15 14 13 15 15 13 13 13 12 12 13 13 13 13 13 13 13 14 16 16 15 15 15 15 16 18 18 18 17 16 16 15 15 16 15 14 16 17 18 18 17 17 18 18 20 20 19 18 18 19 20 21 22 23 24
7 7 8 8 8 9 10 10 10 10 10 10 9 9 8 8 9 9 9 10 10 11 12 11 12 13 13 12 12 14 13 13 14 14 13 13 14 15 14 14 15 14 13 14 15 14 13 12 13 13 14 16 16 15 14 14 16 18 18 17 18 17 16 17 16 15 16 15 15 16 18 19 18 17 18 20 20 20 21 20 18 17 18 20 21 22 23 24
6 7 8 8 9 10 10 10 10 10 10 9 9 9 8 7 9 9 9 10 10 11 11 11 12 12 12 12 13 14 12 12 14 13 12 13 13 13 13 14 15 14 14 15 15 15 13 12 13 14 15 15 16 16 16 17 18 18 17 17 18 18 18 18 17 17 17 16 16 18 19 18 16 16 19 20 20 19 19 18 17 17 18 19 20 22 23 25
6 6 7 8 9 11 11 10 10 10 9 9 9 8 9 8 8 9 9 11 10 11 11 11 12 12 11 12 13 13 12 12 14 14 13 13 13 13 13 14 16 15 15 15 15 15 14 13 14 16 17 16 16 17 18 19 19 17 17 18 17 17 18 19 18 18 18 18 19 19 18 17 17 17 19 19 18 18 17 17 17 17 18 19 21 22 24 26
6 6 7 8 10 11 11 10 10 9 9 9 9 9 8 8 8 9 10 10 10 11 11 10 11 11 11 12 12 12 12 12 14 14 14 14 14 15 15 15 17 17 16 16 15 15 15 15 16 17 17 16 17 18 18 19 17 16 17 18 17 17 18 18 18 18 19 20 19 17 17 17 17 17 17 17 17 17 17 17 17 18 19 20 22 23 25 27
6 6 7 9 11 11 11 10 9 9 8 8 9 9 9 8 8 8 9 10 10 11 11 10 11 12 12 12 12 13 13 13 14 14 14 14 14 15 15 15 17 18 17 17 17 16 16 16 16 16 15 16 18 19 18 18 17 17 17 17 17 17 18 18 18 18 18 19 18 17 17 17 17 17 17 17 18 18 18 18 18 19 20 21 23 24 26 28
6 6 7 9 11 11 10 9 9 9 8 8 8 9 8 8 8 8 9 10 9 10 11 11 12 13 13 13 13 15 15 14 15 15 15 15 15 15 16 15 16 18 18 18 17 16 17 18 16 15 15 16 18 18 17 18 18 17 16 16 17 17 17 17 18 18 18 19 18 17 18 18 18 18 18 18 19 19 19 19 19 20 21 22 24 26 28 29
5 6 7 9 11 11 10 9 9 8 8 9 9 8 8 8 8 8 9 10 9 10 11 12 12 13 13 14 14 16 16 16 16 16 16 15 15 16 17 16 16 18 19 19 18 17 17 18 16 15 16 18 18 18 17 17 17 16 16 17 18 18 18 18 18 19 19 20 19 18 18 19 18 18 18 19 20 20 19 20 20 21 22 24 25 27 30 32
5 5 6 10 11 10 9 9 8 8 9 9 8 8 8 8 8 9 9 10 10 10 12 12 13 13 13 14 15 16 16 17 17 16 16 16 16 16 16 17 18 18 19 19 18 17 17 17 16 16 18 19 18 18 17 16 16 16 17 18 18 18 19 19 19 19 19 20 20 19 19 18 17 18 20 21 21 21 20 20 21 22 24 25 27 29 32 34
5 5 6 10 11 9 9 9 9 9 9 8 8 8 8 8 8 9 10 10 11 11 12 12 13 14 14 15 16 16 17 17 16 16 17 17 17 17 16 18 19 20 20 19 18 18 17 17 17 18 18 19 18 18 18 17 17 18 18 19 19 18 18 19 18 18 19 20 20 20 20 18 17 20 21 22 23 22 21 21 22 23 25 27 29 31 34 35
5 5 7 10 10 8 8 9 10 9 8 8 8 8 8 8 9 9 10 11 11 12 13 13 14 15 15 16 16 17 18 18 16 16 17 18 18 17 17 19 20 20 20 19 18 18 18 18 19 20 20 20 19 18 18 18 19 19 20 20 20 19 19 19 19 17 18 19 19 20 21 18 17 20 20 21 22 22 22 22 23 24 26 28 31 33 35 37
6 6 7 10 9 8 9 9 9 9 8 9 9 9 8 9 9 10 10 11 12 13 13 13 14 15 15 17 17 17 18 18 17 17 18 18 18 18 19 20 20 20 20 19 18 19 19 19 20 21 21 20 19 18 18 19 19 19 20 20 19 19 19 20 19 18 18 18 18 19 19 18 18 19 19 20 21 21 22 23 24 26 28 30 33 35 37 37
7 7 8 9 8 8 9 9 8 9 9 9 8 9 9 9 10 10 11 12 13 13 13 14 15 15 16 17 18 18 18 18 17 18 18 18 18 19 20 21 21 20 19 19 19 19 20 19 20 21 20 18 18 17 18 19 20 20 20 20 20 20 20 19 19 19 19 18 17 18 18 17 16 18 19 20 21 22 23 24 26 28 30 32 35 37 38 38
8 8 9 10 9 8 9 8 8 8 9 8 9 9 10 10 11 11 12 13 13 13 14 15 15 16 17 17 18 19 19 19 18 19 18 19 19 19 20 21 21 20 19 19 20 20 20 20 21 22 21 19 18 18 19 20 21 21 20 20 20 20 19 18 18 18 18 17 16 18 18 16 16 18 19 20 22 23 25 26 28 30 32 34 36 37 38 38
7 8 10 12 12 10 9 9 8 8 8 9 10 10 11 11 11 12 12 13 14 14 14 15 16 17 17 17 18 19 19 20 19 19 19 20 20 20 20 21 20 20 20 20 21 21 21 21 21 22 22 22 22 22 22 22 22 21 20 20 20 19 18 17 17 16 16 16 16 17 18 17 17 18 20 21 23 25 27 28 29 31 34 35 37 38 38 39
7 8 8 10 12 12 11 10 10 9 9 9 10 11 11 11 11 12 12 13 14 15 15 16 17 17 17 18 19 19 19 20 20 20 20 20 21 20 21 21 20 20 21 21 21 21 21 21 22 22 22 23 24 23 22 22 22 22 20 20 19 18 16 16 16 15 16 16 16 16 17 19 20 20 21 23 25 27 28 30 32 34 35 36 37 38 39 39
8 8 8 8 10 11 12 12 11 10 10 10 10 11 12 12 12 12 13 13 15 15 16 16 18 18 19 20 20 20 20 20 20 20 21 21 21 21 21 21 20 21 22 21 22 22 22 22 22 22 23 23 24 24 21 20 21 21 21 19 17 16 15 15 15 15 15 16 16 16 16 20 23 22 23 25 26 28 30 32 34 36 37 37 38 39 39 39
9 9 9 9 9 10 10 11 12 12 11 11 11 11 12 13 13 13 14 14 15 16 17 17 18 20 20 21 21 21 22 21 20 20 20 21 21 22 22 21 21 23 23 22 23 23 23 23 22 22 23 23 22 22 20 19 20 20 18 16 15 14 14 14 14 14 14 16 18 19 20 23 25 24 24 26 27 29 32 34 36 37 37 39 40 39 39 40
10 10 10 10 10 10 10 11 11 12 12 12 12 12 13 14 14 14 14 15 16 17 18 19 20 21 21 21 21 22 23 22 22 21 21 21 22 22 22 21 21 23 23 23 24 24 23 23 22 22 23 21 19 19 19 20 20 18 15 14 14 14 13 13 13 14 15 17 20 22 24 25 25 23 24 27 29 31 33 35 36 37 38 40 40 39 39 39
10 10 10 11 12 12 11 11 11 12 12 12 12 13 13 14 15 15 15 16 17 18 19 20 21 22 21 21 22 22 22 23 23 23 22 22 23 22 22 22 22 23 24 24 24 24 24 24 22 22 22 19 17 18 19 20 18 14 11 13 14 13 12 13 14 15 17 19 21 24 25 25 23 23 25 29 31 33 35 36 37 38 39 40 40 39 39 39
11 11 11 12 12 12 12 12 12 12 12 13 13 13 13 14 15 16 15 16 17 18 19 20 21 21 21 21 22 22 23 23 23 24 23 23 23 22 22 22 22 24 25 24 24 25 24 23 21 21 21 18 17 19 20 18 14 10 10 13 13 13 12 13 15 16 18 22 24 24 24 24 23 24 28 31 33 35 37 38 38 39 39 40 39 39 39 40
12 12 11 12 12 12 12 12 12 12 13 13 14 14 14 15 16 16 17 17 18 19 20 20 21 21 22 22 22 23 23 24 24 24 24 23 23 22 22 23 23 24 25 24 24 24 23 22 21 21 20 18 18 21 20 15 11 10 11 13 13 13 14 15 17 18 20 22 24 24 24 24 25 28 31 33 35 37 38 38 39 40 40 39 38 39 40 41
Wind_Direction
131 127 122 115 108 101 94 82 71 63 57 50 43 39 36 34 30 28 25 17 6 359 352 348 343 338 334 327 323 318 314 309 303 298 295 294 294 295 294 290 287 284 282 280 274 268 265 266 270 271 267 266 269 268 265 266 264 261 262 263 263 265 267 268 267 269 274 276 270 266 265 267 269 264 265 266 264 266 264 264 267 266 268 269 268 267 263 260
136 131 125 117 105 89 76 61 49 40 30 20 13 5 359 350 345 339 333 332 330 333 333 334 334 332 330 324 320 314 309 302 300 308 305 299 299 300 296 291 288 284 282 279 277 273 268 267 270 270 268 267 268 268 265 266 265 263 265 265 265 268 270 272 271 270 272 275 272 269 267 268 272 267 265 267 266 266 265 265 266 265 265 266 266 265 263 262
135 135 128 116 95 63 32 25 21 13 3 357 353 345 336 324 314 307 306 307 309 315 318 320 321 320 320 317 312 306 301 292 291 301 302 300 301 301 297 293 289 285 282 279 277 275 272 270 269 269 269 268 268 267 265 266 266 265 266 265 267 270 272 271 271 272 272 273 272 270 269 268 272 270 267 269 269 267 267 269 268 267 266 265 265 264 263 262
133 135 133 123 81 16 351 349 351 348 344 341 337 331 323 313 305 298 297 296 299 304 308 310 311 312 312 311 306 301 297 288 289 296 298 299 300 299 296 293 289 284 282 279 277 275 273 271 271 271 270 269 270 268 266 267 267 266 265 268 270 271 271 270 269 271 271 273 273 271 270 269 270 269 268 269 269 268 270 275 274 273 273 269 266 264 263 263
132 136 147 161 286 316 318 321 327 326 325 324 321 318 313 308 303 297 294 292 294 299 302 305 306 307 308 308 303 298 294 288 289 294 296 298 299 297 294 293 291 286 282 279 277 275 273 272 272 272 271 271 270 268 268 268 268 267 266 271 271 269 271 272 269 270 269 271 272 269 270 271 269 268 270 270 271 273 275 278 276 276 276 272 268 265 265 264
144 161 208 250 278 289 298 302 307 311 312 312 310 309 306 303 300 296 293 291 292 294 298 301 303 304 306 305 300 296 294 291 291 293 296 298 298 296 293 292 290 287 283 281 278 276 274 273 271 271 272 272 269 269 271 268 268 269 269 270 270 268 271 273 269 268 269 269 269 270 272 271 268 269 271 273 278 280 279 278 276 275 276 273 270 268 267 266
232 251 261 270 279 286 292 296 300 304 306 306 305 304 301 299 296 294 292 291 291 292 294 297 300 303 303 302 299 296 295 292 292 294 297 298 298 295 292 291 289 286 284 281 279 276 274 272 271 270 271 272 270 270 271 269 268 269 271 270 270 269 270 272 270 268 268 269 271 271 271 269 268 271 272 277 284 284 281 278 275 274 274 274 272 271 269 267
264 267 272 276 281 286 290 294 298 301 303 302 301 299 297 295 293 292 291 291 292 292 293 295 297 301 302 300 297 294 293 292 293 295 297 298 298 296 292 291 289 286 284 282 280 276 274 272 271 269 270 272 270 269 270 269 267 267 271 272 271 271 270 271 269 268 268 270 271 269 270 271 271 273 273 281 288 284 282 279 275 273 273 275 274 272 271 269
273 274 276 279 283 287 290 293 296 298 300 300 298 296 293 291 290 291 291 291 292 292 293 294 296 299 299 299 295 291 292 293 294 297 298 298 298 296 293 291 290 288 285 284 281 277 275 273 271 269 271 272 269 269 269 269 270 269 271 273 271 271 272 271 270 268 268 269 269 267 270 272 273 273 273 284 289 284 282 280 277 275 274 276 275 274 272 270
278 281 280 282 285 289 292 294 296 298 300 300 298 296 293 291 289 289 290 291 292 292 292 293 296 297 297 296 293 292 293 294 296 299 300 299 296 294 294 292 291 289 286 285 283 280 278 275 273 271 271 271 269 270 269 269 272 272 272 272 272 274 274 273 272 270 269 270 267 267 271 272 273 273 274 285 288 282 280 280 279 278 277 278 277 276 274 272
282 286 285 286 289 293 296 297 298 300 301 301 299 297 294 292 290 289 289 290 291 291 292 294 295 297 296 295 294 295 295 295 297 301 301 300 297 295 294 293 291 288 286 286 284 282 280 276 273 272 272 270 268 269 269 269 273 273 272 272 272 274 274 272 272 271 270 270 267 268 272 271 273 274 279 285 283 279 279 280 281 280 280 280 278 277 276 275
286 290 291 292 293 296 299 300 301 302 303 303 301 299 296 293 291 290 289 289 290 291 292 294 296 297 295 294 297 296 294 294 296 300 301 300 298 295 293 293 291 288 285 285 284 282 281 276 272 273 272 270 269 270 269 269 272 273 273 273 272 272 272 272 273 271 271 271 267 269 272 271 273 278 284 284 278 277 279 281 282 282 282 280 278 277 276 276
290 293 296 296 297 298 299 300 301 303 304 304 304 302 299 296 294 292 292 291 292 293 294 295 297 296 294 294 297 296 295 296 297 300 300 298 297 294 292 293 292 288 285 284 284 282 280 277 274 273 272 270 271 271 269 270 272 272 272 275 274 273 272 273 275 272 269 271 268 269 272 271 274 282 287 281 275 277 281 282 283 283 282 280 278 277 277 278
292 295 298 298 298 297 298 300 301 305 306 307 307 305 302 300 299 297 296 295 296 296 296 297 298 296 296 296 297 299 300 299 301 303 301 301 300 295 292 293 293 290 286 284 284 283 281 278 275 273 273 273 271 269 269 271 272 272 273 273 273 273 273 275 277 272 269 272 270 270 274 272 275 286 288 281 275 277 281 283 283 283 282 280 279 278 278 280
293 295 299 299 299 299 300 302 304 308 310 310 311 309 306 306 305 302 301 301 301 299 298 300 300 298 299 300 301 303 305 306 308 307 304 305 304 298 296 296 294 291 287 286 285 284 282 278 276 275 274 273 270 268 271 272 272 273 273 272 272 272 273 275 277 277 275 275 271 270 274 273 277 287 288 282 278 277 280 281 282 283 282 281 280 279 279 279
295 297 301 301 301 302 304 306 308 312 314 314 314 312 311 311 310 307 308 308 304 302 300 301 302 301 301 304 305 305 309 313 312 308 306 307 305 300 299 297 295 293 289 288 287 285 283 280 278 276 273 272 270 271 273 272 271 272 272 272 272 272 274 275 276 280 279 276 272 272 276 275 279 287 287 282 279 277 279 280 281 282 282 282 281 280 280 279
298 300 302 302 303 306 308 311 312 314 317 318 315 313 312 313 312 311 314 313 308 304 303 305 307 304 305 309 309 310 313 315 313 311 311 311 307 304 302 299 297 296 292 289 288 286 285 282 278 276 275 275 273 273 273 272 271 272 272 273 274 274 276 277 276 279 280 276 275 276 277 278 282 286 286 283 280 279 280 280 281 282 282 282 282 282 282 281
301 301 303 305 307 310 312 315 315 318 321 321 319 316 313 315 315 316 320 317 309 306 306 314 316 308 309 316 314 313 315 315 314 316 318 316 312 309 307 303 300 298 294 292 289 286 286 283 278 277 276 275 274 272 272 274 276 276 275 275 277 276 275 277 278 280 281 278 277 277 277 279 283 285 285 284 282 281 281 281 282 282 282 283 283 283 283 282
306 306 309 312 313 315 317 319 320 323 325 326 326 322 318 320 317 318 328 327 318 315 312 318 322 313 312 318 318 316 317 316 315 319 323 322 316 312 310 308 306 301 297 295 291 289 288 283 279 278 278 277 277 276 276 279 280 278 278 278 279 278 277 279 280 282 282 279 278 278 278 280 283 285 286 285 284 282 282 282 283 283 283 284 284 284 284 283
316 315 317 319 320 321 322 324 326 329 331 332 331 325 323 325 319 318 331 335 331 326 319 320 325 321 317 318 321 322 322 318 317 323 327 325 319 314 313 312 309 305 302 300 297 294 290 285 282 283 283 283 283 281 280 282 281 279 279 279 279 280 280 281 282 283 282 280 281 281 281 284 285 286 286 285 284 283 283 282 283 283 284 284 284 285 284 283
322 322 323 324 325 326 327 330 332 334 337 337 334 332 329 327 322 321 326 328 328 326 324 324 323 324 323 319 323 327 324 321 320 326 330 327 320 316 317 317 310 309 311 305 300 298 293 289 288 290 289 287 286 284 282 282 281 280 280 281 281 280 282 283 283 284 282 281 281 280 283 287 287 287 287 286 285 285 285 283 283 283 284 285 284 284 284 282
325 327 328 329 329 331 331 333 337 338 336 336 338 339 335 331 327 325 322 321 325 325 326 326 323 328 327 321 326 327 324 325 324 329 333 330 327 324 321 321 315 314 315 308 302 299 295 294 295 294 291 288 287 285 283 283 282 282 282 283 283 283 284 284 284 284 284 284 282 280 284 288 288 289 289 289 288 287 287 285 284 284 284 284 284 283 282 281
332 332 332 333 333 334 332 329 335 336 333 335 340 339 336 334 331 326 322 320 326 329 330 331 328 332 332 327 330 328 326 329 326 330 335 333 333 329 323 323 319 314 314 312 308 303 299 299 299 296 290 287 287 286 286 285 284 283 284 284 284 287 287 284 286 286 285 288 286 282 285 286 286 288 291 291 290 288 289 289 288 287 285 285 284 283 282 281
337 336 336 336 334 333 329 324 328 331 332 336 339 336 332 331 330 327 326 323 326 330 332 332 330 333 334 330 331 330 328 331 328 330 334 334 332 325 322 324 318 314 315 314 310 305 304 303 300 296 291 290 290 290 290 288 288 287 285 286 287 289 288 286 290 289 287 289 287 284 284 284 284 287 290 291 290 289 289 289 289 289 287 285 284 283 282 280
339 340 339 337 334 330 325 322 327 329 330 333 335 333 330 329 328 326 327 324 324 331 332 331 331 335 334 331 334 333 326 331 333 330 332 335 332 324 323 323 318 318 316 312 311 307 309 307 301 298 295 295 294 294 296 293 292 291 289 291 292 292 291 289 292 292 289 287 286 287 287 286 286 288 289 289 288 289 287 286 287 286 285 284 283 282 281 280
341 341 339 336 333 330 324 323 329 329 329 331 332 331 329 329 328 326 327 324 324 332 333 333 333 335 336 335 338 334 326 331 334 333 334 335 333 325 323 323 319 321 317 313 312 309 310 308 302 301 298 298 297 298 300 296 295 294 293 295 293 292 292 291 293 292 291 289 288 289 289 287 288 289 288 287 287 287 286 286 286 285 284 283 282 282 280 280
343 340 338 337 336 335 329 327 331 331 331 331 331 331 330 331 330 326 326 326 330 333 333 335 335 337 338 337 339 336 330 331 331 335 337 334 333 327 324 327 322 323 321 315 315 313 311 309 306 305 301 300 301 301 301 297 297 298 295 295 294 293 292 293 293 291 291 292 290 288 287 286 287 289 288 287 287 287 285 286 286 285 284 283 283 283 281 282
344 341 340 340 343 345 340 334 335 334 333 331 331 334 333 333 332 327 327 330 334 335 334 336 336 339 339 337 342 343 335 334 333 336 338 335 336 330 327 331 325 323 323 316 318 318 314 314 311 307 305 306 305 304 302 296 296 299 296 295 295 295 295 294 293 291 292 292 290 289 287 285 287 290 289 287 287 287 285 286 286 285 285 285 285 284 283 284
343 342 343 343 345 349 347 341 340 337 335 334 334 336 335 334 332 331 334 332 335 339 338 338 338 340 340 336 343 347 340 340 339 336 338 340 340 334 329 331 326 320 320 320 322 319 315 314 309 306 308 309 307 305 303 298 298 300 296 295 296 297 297 296 293 293 292 290 291 294 291 289 291 291 289 288 288 289 287 288 288 287 287 287 285 285 285 286
343 344 346 346 345 346 345 344 344 340 339 338 336 336 336 336 336 338 342 337 338 341 338 341 341 338 341 340 343 346 342 340 339 335 339 341 341 340 331 326 325 320 319 324 324 319 315 311 305 308 311 309 307 306 305 303 302 301 297 298 298 298 298 297 296 295 292 289 294 298 294 293 294 293 292 292 293 294 292 291 291 289 288 287 286 286 287 288
345 348 349 350 350 348 345 345 345 342 341 339 336 338 338 340 346 350 349 341 340 342 342 345 344 341 346 345 341 343 339 338 339 339 341 339 341 344 337 329 328 325 323 327 327 323 318 312 310 313 314 311 307 306 307 305 303 302 302 303 301 299 299 296 295 294 293 294 298 300 297 293 293 295 297 297 297 298 295 292 290 288 287 287 288 288 289 290
344 350 355 356 354 351 348 345 343 342 340 339 340 342 342 345 353 355 348 342 342 344 346 345 343 343 344 341 341 342 339 339 342 343 341 339 342 345 342 339 336 331 332 332 329 328 324 318 316 314 316 316 311 310 310 306 306 306 306 308 305 303 301 298 297 296 296 297 298 300 300 295 292 295 298 299 301 300 297 293 290 288 289 290 290 291 292 293
343 349 355 357 354 350 348 344 342 342 341 343 344 348 352 354 356 354 346 345 347 346 345 342 341 342 340 342 346 344 341 343 344 344 342 341 344 346 346 346 343 337 335 334 331 331 327 320 318 316 317 318 315 315 314 310 311 311 310 311 308 306 303 300 300 298 298 298 297 299 301 295 292 296 299 302 304 303 301 298 296 294 293 294 294 294 295 296
343 348 351 354 353 349 346 343 342 343 345 348 350 353 3 3 355 352 347 347 348 346 347 346 343 344 347 351 351 347 347 351 349 346 345 344 345 346 346 347 346 339 333 331 332 331 324 317 321 321 318 318 318 319 315 311 311 310 309 309 306 305 303 301 301 300 300 300 298 298 298 296 296 298 301 303 304 305 306 305 304 302 299 298 297 297 298 299
344 349 350 349 349 348 346 345 345 348 350 354 358 2 7 1 350 351 351 350 351 350 351 353 350 351 357 357 355 354 352 352 351 347 346 346 343 343 342 341 342 338 333 332 331 327 319 316 321 320 316 317 319 317 314 312 310 308 307 307 306 306 302 299 301 302 300 300 299 297 297 299 300 299 301 302 302 306 307 306 305 303 301 300 299 300 301 302
342 344 346 346 347 348 348 349 351 354 354 358 3 7 7 1 355 358 359 357 358 356 353 357 360 360 360 356 356 357 352 347 346 344 346 345 341 341 339 336 337 337 336 334 330 326 320 318 321 319 315 319 320 317 315 314 311 308 308 309 309 307 302 300 301 301 299 299 300 300 299 300 299 299 300 300 301 305 305 304 304 303 302 302 302 303 304 305
341 341 345 348 350 351 352 356 358 359 2 6 9 9 7 7 7 8 6 5 7 4 360 4 5 1 358 354 353 353 349 346 344 343 344 342 339 340 338 335 336 336 336 333 328 327 321 318 323 320 316 321 320 316 316 316 313 311 311 312 311 306 304 304 303 302 301 299 300 301 300 301 300 300 301 299 299 301 302 303 304 303 303 303 304 305 306 307
343 344 351 355 355 355 357 2 2 4 11 12 15 19 17 17 18 15 13 13 11 8 6 7 5 360 357 354 352 350 347 346 345 344 344 341 339 339 336 335 335 334 334 330 327 329 323 319 324 321 318 321 318 314 315 317 316 316 313 313 312 307 305 307 306 305 304 302 302 301 300 302 303 304 306 305 303 301 301 303 303 303 304 305 306 307 308 309
353 355 1 360 359 2 5 7 7 12 18 18 22 30 27 24 26 22 18 16 11 8 8 6 2 359 357 353 351 350 349 348 345 343 344 342 339 338 336 334 334 333 333 329 327 328 324 320 322 320 319 319 317 316 317 318 318 316 313 314 314 310 307 308 306 304 304 303 303 303 301 303 306 307 308 312 312 307 304 304 304 305 306 307 308 310 311 312
5 8 9 3 3 9 12 16 21 22 26 29 31 35 30 28 29 23 18 13 9 7 6 4 360 357 356 353 351 351 349 348 344 341 343 341 338 339 338 334 333 332 331 329 328 328 324 320 318 319 320 319 319 320 318 317 317 316 315 317 316 311 308 307 304 303 303 302 303 303 303 304 307 306 308 313 315 313 309 307 307 308 309 310 311 312 314 314
18 18 13 7 9 14 17 25 30 30 33 37 36 36 33 30 26 21 16 11 8 6 3 2 359 357 355 353 351 350 348 346 344 341 341 340 339 339 337 335 332 331 330 329 329 329 325 320 316 318 321 320 320 320 315 313 317 318 318 317 314 313 311 307 305 305 304 303 303 304 304 305 307 307 309 313 316 316 314 312 311 311 311 312 313 314 315 315
32 27 14 11 17 26 32 37 34 31 37 38 35 35 32 27 22 18 14 9 6 4 2 1 358 356 354 351 350 349 347 345 344 341 340 339 339 337 336 334 332 330 330 330 330 329 325 321 318 318 320 321 320 319 315 313 314 317 318 316 312 312 311 307 305 307 305 305 305 304 304 306 307 308 311 315 317 318 318 317 315 313 313 314 314 314 314 314
38 34 23 20 28 39 43 44 37 33 38 38 34 33 28 23 19 14 11 8 5 3 1 359 357 355 353 351 349 348 347 345 343 342 341 338 338 338 336 334 332 331 331 330 330 329 325 323 321 319 320 320 317 316 314 312 312 314 316 316 313 312 311 307 306 308 306 305 306 305 306 308 309 310 313 315 317 317 318 318 316 314 314 314 314 314 315 315
46 45 38 33 39 47 45 43 40 38 38 37 35 31 25 22 17 12 9 7 5 3 1 359 357 354 353 351 348 347 347 345 343 343 342 338 338 338 336 335 334 333 333 331 331 329 327 325 323 321 321 319 316 315 313 311 312 314 315 314 314 313 312 309 308 308 307 307 309 307 309 313 313 312 313 315 316 316 316 317 315 314 314 314 315 315 316 316
53 53 48 42 45 51 47 43 44 44 39 36 34 28 22 21 17 12 10 9 6 3 0 358 356 353 352 350 348 347 347 345 343 343 341 338 338 338 337 336 335 334 333 332 330 329 327 325 324 322 322 320 318 316 314 313 313 314 314 314 315 314 311 311 311 309 309 313 312 308 311 315 313 312 314 316 316 315 316 316 315 315 315 315 316 316 316 317
59 56 49 44 46 50 49 45 44 45 40 34 32 26 21 19 16 12 9 8 6 3 360 358 354 352 351 350 348 347 347 345 343 342 341 339 338 338 337 336 335 334 332 331 330 329 327 326 324 322 319 318 316 315 316 315 313 312 315 316 315 314 313 313 314 313 315 315 312 310 314 315 313 314 316 317 316 316 316 316 316 316 316 316 317 317 317 317
61 57 49 44 45 45 45 43 41 41 37 31 29 26 19 15 13 11 9 6 4 1 358 357 355 353 351 350 349 347 346 344 343 342 341 340 338 337 336 336 335 334 332 330 330 330 327 326 326 323 318 315 314 315 317 317 313 313 316 316 315 316 316 315 316 318 319 317 315 317 318 314 314 317 317 317 318 317 317 317 317 317 317 317 317 317 317 318
61 60 52 47 46 43 41 41 40 40 37 31 28 24 18 15 12 9 7 4 2 359 357 356 356 354 351 348 348 347 345 344 344 343 342 340 338 337 337 337 336 335 334 332 332 331 328 327 327 325 319 316 316 318 320 318 316 317 318 317 317 318 316 317 320 321 321 317 316 318 316 312 315 318 318 318 319 318 318 318 318 318 318 318 319 318 318 318
64 63 54 49 51 49 44 41 40 39 34 28 25 22 17 14 11 8 4 1 0 359 356 354 354 353 351 348 347 347 346 345 344 343 342 341 338 338 337 336 335 336 336 334 334 333 329 328 329 326 322 322 323 324 324 321 319 320 320 321 323 321 319 322 323 323 320 315 314 316 314 313 316 319 319 319 319 318 319 319 319 319 319 319 319 319 319 319
66 64 58 57 55 49 44 39 36 34 29 24 21 19 14 11 8 6 3 360 359 358 356 353 351 351 350 349 347 346 346 344 341 340 341 341 339 338 338 337 335 336 337 336 334 333 332 331 331 328 326 327 328 327 326 322 321 321 324 327 327 323 322 324 324 322 319 315 315 316 316 316 320 321 320 320 320 320 321 320 320 320 320 320 319 319 320 320
66 64 62 60 51 41 38 37 32 30 26 21 19 17 12 9 7 3 1 359 357 356 355 352 350 350 350 349 347 346 346 343 339 338 340 339 339 339 339 338 337 336 337 337 335 335 334 333 333 332 330 330 330 330 329 329 326 324 325 328 328 324 323 324 324 322 319 318 318 319 319 321 323 322 321 321 322 322 322 321 321 320 321 320 320 320 321 321
65 62 59 56 48 38 36 34 29 27 25 19 17 14 9 8 6 2 1 360 357 355 354 352 350 350 349 348 348 346 345 342 339 340 340 339 339 339 338 338 338 337 338 339 338 337 336 335 336 335 332 331 334 333 332 331 329 326 327 327 327 325 322 321 321 320 318 320 321 321 322 324 324 323 323 324 324 323 323 322 321 321 321 321 321 321 322 322